www.pogodaiklimat.ru

Погода и климат >> Архив погоды >> Марокко >> Касабланка


АРХИВ ПОГОДЫ в Касабланке

Время (UTC), дата Ветер
(напр.,м/с)
 
Видим.   Явления Облачность Т
(С)
Тd
(С)
f
(%)
Тe
(С)
Тes
(С)
Комфортность P
(гПа)
Po
(гПа)
Тmin
(С)
Tmax
(С)
R
(мм)
R24
(мм)
S
(см)
06 12.08 СВ 6-8
{10}
5000 м ясно +20.6 +18.2 86 +24 +24 комфорт 1017.1 1010.4 +20.5
09 12.08 СВ 11-8
{12}
10 км 1/1 480 м
[Cu hum]
+23.6 +17.1 67 +27 +27 жарко 1018.1 1011.4
12 12.08 С 19-28
{29}
10 км 1/0
[Ci fib]
+24.3 +17.0 64 +28 +28 душно 1017.9 1011.2
15 12.08 С 18-26
{27}
10 км 1/1 480 м
[Cu hum]
+24.4 +17.4 65 +28 +28 душно 1016.2 1009.5
18 12.08 С 16-24
{25}
10 км 1/1 480 м
[Cu hum]
+22.3 +16.8 71 +27 +27 душно 1016.1 1009.4 +25.2
06 13.08 Ю 2-2
{3}
10 км ясно +17.4 +15.4 88 +18 +18 прохладно 1016.1 1009.4 +17.4
09 13.08 С 10-10
{12}
10 км ясно +23.3 +18.2 73 +29 +30 душно 1016.9 1010.2
12 13.08 С 8-8
{16}
10 км ясно +25.8 +18.4 64 +31 +34 очень
душно
1016.6 1009.9
15 13.08 С 14-14
{21}
10 км ясно +25.3 +19.0 68 +30 +30 душно 1015.5 1008.8
18 13.08 С 14-14
{21}
10 км 4/4 480 м
[Cu med, cong]
+23.7 +19.8 79 +29 +29 душно 1015.4 1008.7 +26.1
06 14.08 СЗ 2-4
{4}
6000 м ясно +18.6 +17.3 92 +20 +20 по сезону 1015.8 1009.1 +18.4
09 14.08 СЗ 8-12
{12}
10 км 4/4 480 м
[Cu med, cong]
+24.3 +19.8 76 +30 +31 очень
душно
1016.8 1010.1
12 14.08 СЗ 12-23
{23}
10 км 4/4 480 м
[Cu med, cong]
+26.2 +19.6 67 +32 +32 очень
душно
1016.6 1009.9
15 14.08 С 12-18
{19}
10 км 3/3 480 м
[Cu med, cong]
+25.0 +19.3 71 +30 +30 душно 1015.5 1008.8
18 14.08 С 6-12
{23}
10 км ясно +24.3 +18.9 72 +29 +30 душно 1015.5 1008.8 +26.8
06 15.08 штиль 0-2
{6}
6000 м ясно +21.0 +20.0 94 +26 +26 душно 1016.6 1009.9 +20.9
09 15.08 СЗ 4-8
{12}
10 км ясно +24.3 +20.6 80 +30 +36 очень
душно
1016.9 1010.7
12 15.08 СЗ 15-12
{16}
10 км ясно +26.8 +19.8 66 +33 +33 очень
душно
1016.9 1010.2
15 15.08 С 12-14
{17}
10 км ясно +27.5 +19.2 61 +33 +33 очень
душно
1016.4 1009.7
18 15.08 С 12-12
{16}
10 км 6/6 480 м
[Cu med, cong]
+23.7 +20.5 82 +29 +29 душно 1016.0 1009.3 +27.8
06 16.08 Ю 4-8
{10}
5000 м ясно +20.0 +18.6 92 +23 +23 комфорт 1016.1 1009.3 +19.9
09 16.08 5000 м ясно +24.9 +19.5 72 1016.5 1009.8
12 16.08 СЗ 11-16
{16}
10 км ясно +26.8 +20.0 66 +33 +33 очень
душно
1016.2 1009.5
15 16.08 С 12-18
{25}
10 км ясно +27.2 +20.3 66 +34 +34 очень
душно
1014.9 1008.2
18 16.08 С 13-18
{25}
10 км 10/10 480 м
[Cu med, cong]
+23.6 +20.6 83 +29 +29 душно 1014.7 1008.0 +27.7
06 17.08 С 4-4
{6}
5000 м 5/5 480 м
[Cu med, cong]
+20.7 +19.4 92 +25 +25 комфорт 1014.7 1008.0 +20.7
09 17.08 СЗ 6-6
{10}
10 км ясно +25.1 +19.7 72 +31 +34 очень
душно
1015.1 1008.4
12 17.08 СЗ 10-10
{18}
10 км ясно +26.6 +19.7 66 +32 +33 очень
душно
1014.5 1007.8
15 17.08 СЗ 14-14
{21}
10 км ясно +26.2 +20.5 71 +33 +33 очень
душно
1013.5 1006.7
18 17.08 С 8-8
{16}
10 км 6/6 480 м
[Cu med, cong]
+24.0 +20.4 80 +30 +30 очень
душно
1013.7 1006.9 +27.1
06 18.08 З 4-4
{6}
10 км 9/9 480 м
[Cu med, cong]
+21.0 +17.6 81 +25 +25 комфорт 1015.6 1008.9 +20.9
09 18.08 СЗ 6-6
{14}
10 км ясно +23.0 +17.3 70 +28 +31 душно 1016.8 1010.1
12 18.08 С 8-8
{12}
10 км ясно +24.5 +17.3 64 +28 +32 душно 1017.0 1010.3
15 18.08 СЗ 14-12
{20}
10 км ясно +24.5 +18.4 69 +29 +29 душно 1016.3 1009.5
18 18.08 СЗ 12-12
{18}
10 км ясно +23.0 +18.8 77 +29 +29 очень
душно
1015.5 1008.8 +25.1

 

Местоположение метеостанции Касабланка (Марокко): широта 33.57 долгота -7.67 высота над уровнем моря 57 м.

В архиве по умолчанию представлена погода в Касабланке за последнюю неделю. Архивные данные за месяц целиком и за предыдущие месяцы, начиная с января 2011 года, Вы можете получить, выбрав интересующий диапазон дат из раскрывающегося списка и нажав кнопку "Ввод!".


*Определитесь, кто Вы:
робот инопланетянин человек

Внимание! Время в таблицах - всемирное. Для получения местного времени необходимо прибавить поправку, которая равна 0 ч.

Смотрите также архив погоды в соседних городах и на ближайших метеорологических станциях:

Погода в Нуасере (Марокко) (24 км)
Погода в Мохаммедии (Марокко) (30 км)
Погода в Сеттате (Марокко) (69 км)
Погода в Рабате (Марокко) (99 км)
Погода в Хурибге (Марокко) (102 км)
Погода в Кенитре (Марокко) (128 км)
Погода в Касба-Тадле (Марокко) (174 км)
Погода в Бени-Меллале (Марокко) (178 км)
Погода в Мекнесе (Марокко) (201 км)
Погода в Сафи (Марокко) (204 км)

Пояснения к столбцам:

Ветер - указаны скорость ветра в м/с - средняя за 10 мин, порывы в срок и между сроками (в фигурных скобках) и направление, откуда дует ветер: С - северный, СВ - северо-восточный, В - восточный, ЮВ - юго-восточный, Ю - южный, ЮЗ - юго-западный, З - западный, СЗ - северо-западный.
Видимость - горизонтальная дальность видимости в метрах или километрах. При видимости от 1 до 10 км при отсутствии осадков обычно наблюдается дымка, при ухудшении видимости до 1 км и менее - туман. В сухую погоду видимость может ухудшаться дымом, пылью или мглою.
Явления - указаны атмосферные явления, наблюдавшиеся в срок или в последний час перед сроком; фигурными скобками обозначены явления, наблюдавшиеся между сроками (за 1-3 часа до срока); квадратными скобками обозначены град или гололедные отложения с указанием их диаметра в мм.
Облачность - указаны через наклонную черту общая и нижняя облачность в баллах и высота нижней границы облаков в метрах; квадратными скобками обозначены формы облаков: Ci - перистые, Cs - перисто-слоистые, Cc - перисто-кучевые, Ac - высококучевые, As - высокослоистые, Sc - слоисто-кучевые, Ns - слоисто-дождевые, Cu - кучевые, Cb - кучево-дождевые. Подробнее классификацию облаков см. в Атласе облаков (PDF).
T - Температура воздуха - температура, измеренная на высоте 2 м над землей.
Td - Температура точки росы - температура, при понижении до которой содержащийся в воздухе водяной пар достигнет насыщения.
f - Относительная влажность воздуха - влажноcть воздуха, измеренная на высоте 2 м над землей.
Te - Эффективная температура - температура, которую ощущает одетый по сезону человек в тени. Характеристика душности погоды. При расчете учитывается влияние влажности воздуха и скорости ветра на теплоощущения человека.
Tes - Эффективная температура на солнце - температура, которую ощущает человек, с поправкой на солнечный нагрев. Характеристика знойности погоды. Зависит от высоты солнца над горизонтом, облачности и скорости ветра. Ночью, в пасмурную погоду, а также при ветре 12 м/с и более поправка равна нулю.
P - Атмосферное давление - приведенное к уровню моря атмосферное давление.
Po - Атмосферное давление - измеренное на уровне метеостанции атмосферное давление.
Tmin - Минимальная температура - минимум температуры воздуха на высоте 2 м над землей.
Tmax - Максимальная температура - максимум температуры воздуха на высоте 2 м над землей.
R - Количество осадков - Количество выпавших осадков за период времени, мм. При наведении курсора мыши на число - период времени, за который выпало указанное количество осадков.
R24 - Количество осадков - Количество выпавших осадков за 24 часа, мм.
S - Снежный покров - Высота снежного покрова, см. При наведении курсора мыши на число - состояние снежного покрова и степень покрытия местности в баллах.